Waarnemingen

Advertentie
Mijn weer
St-Nazaire, Frankrijk (7217): temperatuur & dauwpunt: 14.07.2018 04:00:00 - 20.07.2018 04:00:00 (CEST)St-Nazaire, Frankrijk (7217): temperatuur 5cm: 14.07.2018 04:00:00 - 20.07.2018 04:00:00 (CEST)St-Nazaire, Frankrijk (7217): temperatuur -20cm: 14.07.2018 04:00:00 - 20.07.2018 04:00:00 (CEST)St-Nazaire, Frankrijk (7217): windsnelheid & windstoten: 14.07.2018 04:00:00 - 20.07.2018 04:00:00 (CEST)St-Nazaire, Frankrijk (7217): windrichting: 14.07.2018 04:00:00 - 20.07.2018 04:00:00 (CEST)St-Nazaire, Frankrijk (7217): luchtdruk: 14.07.2018 04:00:00 - 20.07.2018 04:00:00 (CEST)St-Nazaire, Frankrijk (7217): zicht: 14.07.2018 04:00:00 - 20.07.2018 04:00:00 (CEST)St-Nazaire, Frankrijk (7217): neerslag: 14.07.2018 04:00:00 - 20.07.2018 04:00:00 (CEST)
Datum & Tijd tt [°C] td [°C] tt 5cm [°C] tt -20cm [°C] ff [km/u] ff [kn] fx [km/u] fx [kn] dd ppp [hPa] vv [km] rr [mm]
20.07.2018 04:00:00 15,2 12,5 14,2 24,4 9 5 14 8 WNW 1017,0 30 0,0
20.07.2018 03:00:00 15,9 12,8 14,6 24,5 6 3 13 7 NW 1017,4 41 0,0
20.07.2018 02:00:00 16,6 13,1 15,3 24,6 6 4 14 8 NW 1017,5 50 0,0
20.07.2018 01:00:00 17,8 12,7 16,5 24,6 9 5 15 8 NNW 1017,5 56 0,0
20.07.2018 00:00:00 18,8 13,9 18,0 24,6 9 5 18 10 NNW 1017,2 59 0,0
19.07.2018 23:00:00 19,3 15,4 18,6 24,7 8 4 12 7 N 1017,1 49 0,0
19.07.2018 22:00:00 19,3 15,8 18,7 24,7 4 2 8 5 WNW 1016,6 42 0,0
19.07.2018 21:00:00 19,5 14,5 19,4 24,7 6 3 12 6 W 1016,8 58 0,0
19.07.2018 20:00:00 19,7 14,5 19,1 24,7 5 3 20 11 ZZW 1016,7 59 0,0
19.07.2018 19:00:00 20,5 14,8 21,0 24,7 7 4 11 6 ZW 1016,8 60 0,0
19.07.2018 18:00:00 19,9 14,7 20,3 24,6 10 6 27 15 W 1017,0 48 0,0
19.07.2018 17:00:00 21,0 16,6 21,9 24,6 10 6 17 9 ZZW 1017,5 38 0,0
19.07.2018 16:00:00 21,5 16,7 21,7 24,6 6 3 19 10 Z 1017,1 49 0,0
19.07.2018 15:00:00 22,2 17,3 20,0 24,6 11 6 15 8 ZZW 1017,4 20 0,0
19.07.2018 14:00:00 22,2 15,8 19,2 24,6 5 3 15 8 W 1017,2 20 0,2
19.07.2018 13:00:00 23,8 14,8 26,6 24,6 8 4 16 9 W 1017,1 59 0,0
19.07.2018 12:00:00 23,5 14,5 28,5 24,6 6 3 16 9 N 1017,1 58 0,0
19.07.2018 11:00:00 21,9 13,8 26,1 24,8 6 3 16 8 NNO 1017,2 57 0,0
19.07.2018 10:00:00 20,6 13,8 22,5 24,9 11 6 19 10 NNO 1017,2 51 0,0
19.07.2018 09:00:00 17,7 13,2 18,0 25,0 9 5 15 8 N 1017,1 51 0,0
19.07.2018 08:00:00 16,2 12,4 14,2 25,1 8 4 12 7 N 1017,0 56 0,0
19.07.2018 07:00:00 15,0 11,9 13,2 25,2 5 3 11 6 NO 1016,8 58 0,0
19.07.2018 06:00:00 15,2 12,1 13,3 25,3 6 3 11 6 NO 1016,6 60 0,0
19.07.2018 05:00:00 16,2 12,4 14,3 25,5 6 4 12 6 N 1016,7 59 0,0
19.07.2018 04:00:00 16,7 12,4 15,9 25,5 9 5 18 10 N 1016,9 60 0,0
19.07.2018 03:00:00 16,9 12,6 16,2 25,6 12 6 19 10 N 1017,0 60 0,0
19.07.2018 02:00:00 17,4 12,9 16,6 25,6 10 6 19 10 N 1017,6 60 0,0
19.07.2018 01:00:00 18,1 13,4 17,1 25,6 9 5 17 9 N 1017,9 60 0,0
19.07.2018 00:00:00 19,1 14,1 17,8 25,6 9 5 14 7 N 1017,9 60 0,0
18.07.2018 23:00:00 20,0 14,6 19,0 25,5 9 5 13 7 WNW 1017,6 60 0,0
18.07.2018 22:00:00 21,1 14,0 20,4 25,4 10 5 16 9 WNW 1016,8 60 0,0
18.07.2018 21:00:00 22,8 13,6 24,0 25,2 11 6 20 11 W 1016,6 52 0,0
18.07.2018 20:00:00 24,1 14,2 25,3 25,0 13 7 22 12 W 1016,2 47 0,0
18.07.2018 19:00:00 24,4 14,2 29,4 24,8 15 8 27 14 WNW 1016,3 46 0,0
18.07.2018 18:00:00 25,1 15,1 26,4 24,6 20 11 32 17 W 1016,6 51 0,0
18.07.2018 17:00:00 25,1 15,1 27,4 24,5 13 7 23 12 ZZW 1016,7 60 0,0
18.07.2018 16:00:00 25,3 14,7 29,3 24,3 13 7 24 13 ZZW 1016,6 60 0,0
18.07.2018 15:00:00 25,4 14,5 30,6 24,3 13 7 25 14 Z 1016,7 49 0,0
18.07.2018 14:00:00 24,9 15,2 28,5 24,3 11 6 23 13 Z 1016,7 55 0,0
18.07.2018 13:00:00 24,3 15,0 28,4 24,3 15 8 21 11 Z 1017,2 60 0,0
18.07.2018 12:00:00 23,2 13,4 30,5 24,3 6 4 18 10 NW 1017,4 60 0,0
18.07.2018 11:00:00 21,6 13,8 27,8 24,4 10 5 17 9 NNO 1017,6 54 0,0
18.07.2018 10:00:00 19,5 13,9 23,7 24,6 9 5 15 8 N 1017,9 60 0,0
18.07.2018 09:00:00 17,3 13,4 18,4 24,7 9 5 15 8 NNW 1018,2 41 0,0
18.07.2018 08:00:00 15,4 12,9 14,1 24,8 9 5 17 9 NW 1018,1 39 0,0
18.07.2018 07:00:00 14,5 12,7 13,7 24,9 9 5 17 9 WNW 1018,0 48 0,0
18.07.2018 06:00:00 15,0 12,5 13,9 25,0 8 4 12 7 WNW 1018,0 60 0,0
18.07.2018 05:00:00 15,9 13,0 14,6 25,1 8 4 12 6 WNW 1018,1 60 0,0
18.07.2018 04:00:00 16,3 12,6 14,9 25,2 4 2 12 6 NW 1018,3 60 0,0
18.07.2018 03:00:00 17,1 13,2 15,9 25,3 5 3 12 6 NW 1018,6 60 0,0
18.07.2018 02:00:00 17,5 13,6 17,1 25,4 8 4 14 8 WNW 1018,8 60 0,0
18.07.2018 01:00:00 17,9 13,0 17,3 25,4 8 4 16 9 WNW 1019,0 56 0,0
18.07.2018 00:00:00 17,8 12,7 17,0 25,4 10 5 16 9 W 1019,2 60 0,0
17.07.2018 23:00:00 18,1 12,5 17,3 25,4 11 6 19 11 W 1019,2 60 0,0
17.07.2018 22:00:00 18,9 11,0 18,1 25,3 14 8 26 14 W 1018,9 60 0,0
17.07.2018 21:00:00 20,8 9,4 21,9 25,2 17 9 31 17 WNW 1018,7 59 0,0
17.07.2018 20:00:00 22,4 10,5 25,1 25,1 16 8 26 14 WNW 1018,5 60 0,0
17.07.2018 19:00:00 23,0 11,4 27,1 24,9 17 9 31 17 W 1018,6 36 0,0
17.07.2018 18:00:00 23,4 12,1 27,0 24,8 18 10 31 17 W 1018,7 41 0,0
17.07.2018 17:00:00 23,7 11,7 27,3 24,8 20 11 34 18 W 1018,9 50 0,0
17.07.2018 16:00:00 24,0 12,3 25,0 24,7 19 10 36 20 W 1019,0 59 0,0
17.07.2018 15:00:00 24,0 11,3 26,3 24,7 15 8 27 14 WNW 1019,2 60 0,0
17.07.2018 14:00:00 21,5 11,8 23,0 24,7 13 7 23 13 Z 1019,8 60 0,0
17.07.2018 13:00:00 21,2 13,1 23,4 24,7 16 8 22 12 Z 1020,0 60 0,0
17.07.2018 12:00:00 21,4 12,8 24,9 24,8 10 6 18 10 WZW 1019,9 59 0,0
17.07.2018 11:00:00 21,2 11,8 25,4 24,9 7 4 16 8 WNW 1019,8 59 0,0
17.07.2018 10:00:00 20,1 13,5 20,6 25,0 6 4 14 8 NW 1019,6 57 0,0
17.07.2018 09:00:00 18,6 14,1 18,4 25,1 7 4 12 6 NNW 1019,5 55 0,0
17.07.2018 08:00:00 17,7 13,8 17,6 25,2 8 4 16 9 N 1019,1 55 0,0
17.07.2018 07:00:00 17,5 13,8 17,3 25,3 8 5 16 9 NW 1019,0 59 0,0
17.07.2018 06:00:00 18,0 15,1 17,6 25,4 6 4 16 8 NW 1018,4 60 0,0
17.07.2018 05:00:00 18,4 16,9 18,1 25,5 9 5 17 9 NW 1018,1 38 0,0
17.07.2018 04:00:00 18,5 16,8 17,7 25,6 10 6 15 8 W 1017,9 36 0,0
17.07.2018 03:00:00 18,4 16,7 17,9 25,6 11 6 19 10 WZW 1018,0 40 0,0
17.07.2018 02:00:00 19,0 17,1 17,7 25,7 12 7 19 10 W 1018,4 48 0,0
17.07.2018 01:00:00 19,0 16,8 - - 8 4 15 8 W 1018,3 45 0,0
17.07.2018 00:00:00 19,2 16,8 18,0 25,7 6 3 18 10 WNW 1018,1 59 0,0
16.07.2018 23:00:00 19,7 16,9 19,0 25,7 14 8 26 14 W 1017,8 60 0,0
16.07.2018 22:00:00 20,5 16,7 19,9 25,7 18 10 35 19 W 1017,3 60 0,0
16.07.2018 21:00:00 22,0 16,0 23,1 25,6 23 12 45 24 W 1016,9 20 0,0
16.07.2018 20:00:00 22,8 14,6 25,1 25,4 29 16 44 24 W 1016,4 21 0,0
16.07.2018 19:00:00 23,8 15,6 26,0 25,2 26 14 45 24 W 1016,0 22 0,0
16.07.2018 18:00:00 24,4 15,1 28,9 25,1 27 15 41 22 W 1015,9 24 0,0
16.07.2018 17:00:00 26,3 14,1 28,1 24,9 25 14 39 21 W 1015,6 29 0,0
16.07.2018 16:00:00 25,8 13,3 29,2 24,8 23 12 35 19 W 1015,5 34 0,0
16.07.2018 15:00:00 27,0 14,1 32,8 24,7 21 11 37 20 W 1015,3 42 0,0
16.07.2018 14:00:00 27,3 12,5 33,7 24,7 16 9 27 15 WNW 1015,5 56 0,0
16.07.2018 13:00:00 27,2 14,6 33,1 24,7 13 7 23 12 WNW 1015,2 60 0,0
16.07.2018 12:00:00 27,0 13,4 33,5 24,8 9 5 17 9 N 1015,1 60 0,0
16.07.2018 11:00:00 25,4 13,3 30,3 24,9 8 4 14 7 N 1014,9 36 0,0
16.07.2018 10:00:00 23,4 14,7 25,9 25,0 5 3 11 6 WNW 1015,2 46 0,0
16.07.2018 09:00:00 20,5 14,6 21,7 25,1 3 1 10 5 NO 1015,0 20 0,0
16.07.2018 08:00:00 17,4 13,9 16,3 25,2 2 1 11 6 WNW 1014,7 40 0,0
16.07.2018 07:00:00 16,5 12,8 15,6 25,3 8 4 14 8 NNW 1014,7 46 0,0
16.07.2018 06:00:00 16,6 12,9 14,7 25,5 8 5 11 6 N 1014,6 49 0,0
16.07.2018 05:00:00 17,0 13,3 14,0 25,6 5 3 11 6 NNW 1014,7 58 0,0
16.07.2018 04:00:00 18,2 12,2 16,2 25,7 5 3 11 6 NNW 1014,9 60 0,0
16.07.2018 03:00:00 18,6 11,9 16,2 25,8 7 4 10 6 N 1015,1 60 0,0
16.07.2018 02:00:00 19,4 11,7 17,3 25,8 6 3 13 7 NNW 1015,2 60 0,0
16.07.2018 01:00:00 20,2 13,4 18,9 25,8 8 4 16 8 NNW 1015,3 60 0,0
16.07.2018 00:00:00 20,9 15,9 19,8 25,7 8 5 18 10 WNW 1015,1 59 0,0
15.07.2018 23:00:00 21,9 14,8 20,9 25,7 10 5 18 10 WNW 1015,1 60 0,0
15.07.2018 22:00:00 23,2 13,9 22,2 25,5 11 6 23 12 WNW 1014,5 60 0,0
15.07.2018 21:00:00 26,1 12,9 27,0 25,3 17 9 23 12 W 1014,3 55 0,0
15.07.2018 20:00:00 27,6 13,9 30,1 25,2 17 9 26 14 WNW 1014,1 20 0,0
15.07.2018 19:00:00 29,0 12,4 32,6 24,9 18 10 31 17 W 1014,0 49 0,0
15.07.2018 18:00:00 29,5 14,1 33,8 24,8 17 9 28 15 WZW 1014,2 57 0,0
15.07.2018 17:00:00 30,0 11,5 36,1 24,6 12 7 22 12 WNW 1014,5 50 0,0
15.07.2018 16:00:00 30,2 13,0 31,6 24,4 10 5 21 11 NW 1014,6 56 0,0
15.07.2018 15:00:00 29,9 13,2 36,7 24,3 9 5 19 10 ZW 1014,8 42 0,0
15.07.2018 14:00:00 28,9 13,9 36,1 24,3 12 7 21 12 NO 1015,2 46 0,0
15.07.2018 13:00:00 27,5 14,5 35,0 24,3 10 5 22 12 NO 1015,7 41 0,0
15.07.2018 12:00:00 26,4 15,1 32,0 24,4 11 6 24 13 NO 1016,0 43 0,0
15.07.2018 11:00:00 24,8 15,1 29,8 24,5 14 8 23 12 NNO 1016,2 47 0,0
15.07.2018 10:00:00 22,3 14,4 25,6 24,6 11 6 18 10 NNO 1016,5 20 0,0
15.07.2018 09:00:00 19,9 14,5 20,6 24,7 11 6 18 10 NNO 1016,5 54 0,0
15.07.2018 08:00:00 17,1 13,8 15,1 24,8 10 5 17 9 N 1016,6 20 0,0
15.07.2018 07:00:00 15,8 12,9 14,2 25,0 5 3 10 6 N 1016,4 24 0,0
15.07.2018 06:00:00 16,0 12,7 14,1 25,1 5 3 13 7 N 1016,4 29 0,0
15.07.2018 05:00:00 16,8 12,9 15,3 25,1 8 4 13 7 N 1016,4 33 0,0
15.07.2018 04:00:00 17,1 12,4 15,4 25,2 6 3 16 9 NNO 1016,6 42 0,0
15.07.2018 03:00:00 17,7 11,9 16,6 25,3 9 5 23 12 NNO 1016,9 53 0,0
15.07.2018 02:00:00 18,7 11,7 17,8 25,3 14 8 24 13 N 1017,2 60 0,0
15.07.2018 01:00:00 19,7 12,9 18,9 25,3 18 10 27 14 NNO 1017,6 60 0,0
15.07.2018 00:00:00 21,0 13,2 19,9 25,3 16 9 24 13 N 1017,5 60 0,0
14.07.2018 23:00:00 22,5 13,0 21,4 25,2 15 8 22 12 N 1017,4 60 0,0
14.07.2018 22:00:00 24,2 13,7 23,4 25,1 13 7 20 11 N 1016,9 60 0,0
14.07.2018 21:00:00 25,9 14,7 26,7 25,0 14 7 23 12 WNW 1016,6 49 0,0
14.07.2018 20:00:00 28,5 13,2 30,3 24,9 10 5 18 10 N 1016,5 53 0,0
14.07.2018 19:00:00 28,4 13,9 29,6 24,7 8 4 14 8 ONO 1016,7 60 0,0
14.07.2018 18:00:00 28,0 13,9 29,9 24,6 9 5 16 9 NNO 1017,1 60 0,0
14.07.2018 17:00:00 28,2 13,3 30,8 24,3 9 5 18 10 NO 1017,2 53 0,0
14.07.2018 16:00:00 29,7 14,3 31,1 24,2 3 2 25 14 W 1017,6 20 0,0
14.07.2018 15:00:00 28,6 13,7 29,9 24,1 10 5 17 9 N 1018,2 44 0,0
14.07.2018 14:00:00 27,4 14,1 31,8 24,1 10 5 24 13 NO 1018,5 52 0,0
14.07.2018 13:00:00 27,1 16,1 34,2 24,2 9 5 24 13 NNO 1018,7 37 0,0
14.07.2018 12:00:00 25,4 16,5 30,5 24,2 12 7 21 11 NNO 1019,2 20 0,0
14.07.2018 11:00:00 23,9 16,9 28,9 24,3 10 5 18 10 NNO 1019,5 33 0,0
14.07.2018 10:00:00 21,5 15,6 25,2 24,4 11 6 18 10 N 1019,6 30 0,0
14.07.2018 09:00:00 19,6 15,0 20,4 24,5 12 7 19 10 NNO 1019,6 20 0,0
14.07.2018 08:00:00 17,2 14,7 15,5 24,6 12 6 19 10 N 1019,4 17 0,0
14.07.2018 07:00:00 15,7 13,9 14,6 24,7 9 5 15 8 N 1019,5 14 0,0
14.07.2018 06:00:00 15,9 13,9 14,7 24,8 9 5 17 9 N 1019,5 16 0,0
14.07.2018 05:00:00 16,4 13,9 15,2 24,9 6 4 18 10 NNO 1019,5 20 0,0
14.07.2018 04:00:00 17,1 13,8 16,3 25,0 12 6 18 10 N 1019,6 25 0,0

tt = temperatuur
td = dauwpunt
tt 5cm = temperatuur 5cm
tt -20cm = temperatuur -20cm
ff = windsnelheid
fx = windstoten
dd = windrichting
ppp = luchtdruk
vv = zicht
rr = neerslag

Weerstations in de omgeving